Time,TemperatureF,DewpointF,PressureIn,WindDirection,WindDirectionDegrees,WindSpeedMPH,WindSpeedGustMPH,Humidity,HourlyPrecipIn,Conditions,Clouds,dailyrainin,SoftwareType,DateUTC
2013-02-10 00:00:00,31.3,23.7,24.27,SE,131,0.0,4.0,73,0.00,,SKC,0.00,VWS V14.01,2013-02-10 05:00:00,
2013-02-10 00:05:00,31.1,23.8,24.27,SE,129,3.0,3.0,74,0.00,,SKC,0.00,VWS V14.01,2013-02-10 05:05:00,
2013-02-10 00:10:00,31.0,23.7,24.26,SE,132,1.0,4.0,74,0.00,,SKC,0.00,VWS V14.01,2013-02-10 05:10:00,
2013-02-10 00:15:00,31.1,23.8,24.29,SE,129,0.0,4.0,74,0.00,,SKC,0.00,VWS V14.01,2013-02-10 05:15:00,
2013-02-10 00:20:00,31.1,23.8,24.27,SE,141,2.0,5.0,74,0.00,,SKC,0.00,VWS V14.01,2013-02-10 05:20:00,
2013-02-10 00:25:00,31.1,23.8,24.28,SE,142,0.0,3.0,74,0.00,,SKC,0.00,VWS V14.01,2013-02-10 05:25:00,
2013-02-10 00:30:00,31.1,23.8,24.29,SE,142,0.0,3.0,74,0.00,,SKC,0.00,VWS V14.01,2013-02-10 05:30:00,
2013-02-10 00:35:00,31.1,23.8,24.28,SE,140,0.0,5.0,74,0.00,,SKC,0.00,VWS V14.01,2013-02-10 05:35:00,
2013-02-10 00:40:00,31.2,23.9,24.27,SE,126,2.0,4.0,74,0.00,,SKC,0.00,VWS V14.01,2013-02-10 05:40:00,
2013-02-10 00:45:00,31.2,23.9,24.26,SE,134,0.0,3.0,74,0.00,,SKC,0.00,VWS V14.01,2013-02-10 05:45:00,
2013-02-10 00:50:00,31.3,23.7,24.27,SE,124,2.0,5.0,73,0.00,,SKC,0.00,VWS V14.01,2013-02-10 05:50:00,
2013-02-10 00:55:00,31.6,23.6,24.28,SE,142,0.0,4.0,72,0.00,,SKC,0.00,VWS V14.01,2013-02-10 05:55:00,
2013-02-10 01:00:00,31.7,23.4,24.27,SE,129,0.0,5.0,71,0.00,,SKC,0.00,VWS V14.01,2013-02-10 06:00:00,
2013-02-10 01:05:00,31.9,23.6,24.28,SSE,152,0.0,6.0,71,0.00,,SKC,0.00,VWS V14.01,2013-02-10 06:05:00,
2013-02-10 01:10:00,32.0,23.7,24.27,SE,128,4.0,5.0,71,0.00,,SKC,0.00,VWS V14.01,2013-02-10 06:10:00,
2013-02-10 01:15:00,32.2,23.5,24.28,SSE,156,2.0,7.0,70,0.00,,SKC,0.00,VWS V14.01,2013-02-10 06:15:00,
2013-02-10 01:20:00,32.3,23.6,24.23,SE,138,4.0,5.0,70,0.00,,SKC,0.00,VWS V14.01,2013-02-10 06:20:00,
2013-02-10 01:25:00,32.5,23.8,24.23,South,171,5.0,6.0,70,0.00,,SKC,0.00,VWS V14.01,2013-02-10 06:25:00,
2013-02-10 01:30:00,32.6,23.6,24.28,SE,146,3.0,10.0,69,0.00,,SKC,0.00,VWS V14.01,2013-02-10 06:30:00,
2013-02-10 01:35:00,32.8,23.8,24.28,SE,141,2.0,10.0,69,0.00,,SKC,0.00,VWS V14.01,2013-02-10 06:35:00,
2013-02-10 01:40:00,32.9,23.5,24.28,SE,134,5.0,9.0,68,0.00,,SKC,0.00,VWS V14.01,2013-02-10 06:40:00,
2013-02-10 01:45:00,33.0,23.6,24.27,SE,144,3.0,5.0,68,0.00,,SKC,0.00,VWS V14.01,2013-02-10 06:45:00,
2013-02-10 01:50:00,33.1,23.4,24.28,SSE,148,4.0,9.0,67,0.00,,SKC,0.00,VWS V14.01,2013-02-10 06:50:00,
2013-02-10 01:55:00,33.3,23.2,24.28,SSE,165,5.0,14.0,66,0.00,,SKC,0.00,VWS V14.01,2013-02-10 06:55:00,
2013-02-10 02:00:00,33.4,23.3,24.27,South,169,10.0,11.0,66,0.00,,SKC,0.00,VWS V14.01,2013-02-10 07:00:00,
2013-02-10 02:05:00,33.6,23.5,24.27,SSE,155,4.0,10.0,66,0.00,,SKC,0.00,VWS V14.01,2013-02-10 07:05:00,
2013-02-10 02:10:00,33.6,23.1,24.27,SSE,153,4.0,11.0,65,0.00,,SKC,0.00,VWS V14.01,2013-02-10 07:10:00,
2013-02-10 02:15:00,33.7,23.2,24.20,SE,132,6.0,11.0,65,0.00,,SKC,0.00,VWS V14.01,2013-02-10 07:15:00,
2013-02-10 02:20:00,33.9,23.0,24.26,SSW,194,2.0,10.0,64,0.00,,SKC,0.00,VWS V14.01,2013-02-10 07:20:00,
2013-02-10 02:25:00,34.0,23.1,24.26,SE,142,5.0,10.0,64,0.00,,SKC,0.00,VWS V14.01,2013-02-10 07:25:00,
2013-02-10 02:30:00,34.2,22.9,24.27,SE,145,3.0,9.0,63,0.00,,SKC,0.00,VWS V14.01,2013-02-10 07:30:00,
2013-02-10 02:35:00,34.3,23.0,24.28,SE,142,0.0,6.0,63,0.00,,SKC,0.00,VWS V14.01,2013-02-10 07:35:00,
2013-02-10 02:40:00,34.3,23.0,24.26,SE,140,10.0,10.0,63,0.00,,SKC,0.00,VWS V14.01,2013-02-10 07:40:00,
2013-02-10 02:45:00,34.4,22.7,24.25,South,169,4.0,12.0,62,0.00,,SKC,0.00,VWS V14.01,2013-02-10 07:45:00,
2013-02-10 02:50:00,34.5,22.8,24.27,South,175,3.0,8.0,62,0.00,,SKC,0.00,VWS V14.01,2013-02-10 07:50:00,
2013-02-10 02:55:00,34.6,22.9,24.28,SSE,152,5.0,13.0,62,0.00,,SKC,0.00,VWS V14.01,2013-02-10 07:55:00,
2013-02-10 03:00:00,34.9,22.8,24.27,SSE,157,3.0,7.0,61,0.00,,SKC,0.00,VWS V14.01,2013-02-10 08:00:00,
2013-02-10 03:05:00,35.0,22.9,24.28,South,186,0.0,5.0,61,0.00,,SKC,0.00,VWS V14.01,2013-02-10 08:05:00,
2013-02-10 03:10:00,35.1,23.0,24.28,SSW,199,6.0,6.0,61,0.00,,SKC,0.00,VWS V14.01,2013-02-10 08:10:00,
2013-02-10 03:15:00,35.1,23.0,24.26,South,172,4.0,7.0,61,0.00,,SKC,0.00,VWS V14.01,2013-02-10 08:15:00,
2013-02-10 03:20:00,35.1,23.0,24.26,South,187,5.0,15.0,61,0.00,,SKC,0.00,VWS V14.01,2013-02-10 08:20:00,
2013-02-10 03:25:00,35.1,23.0,24.28,SSE,154,5.0,7.0,61,0.00,,SKC,0.00,VWS V14.01,2013-02-10 08:25:00,
2013-02-10 03:30:00,35.1,23.0,24.28,SSE,160,5.0,10.0,61,0.00,,SKC,0.00,VWS V14.01,2013-02-10 08:30:00,
2013-02-10 03:35:00,35.1,23.0,24.27,South,175,3.0,10.0,61,0.00,,SKC,0.00,VWS V14.01,2013-02-10 08:35:00,
2013-02-10 03:40:00,35.1,23.0,24.26,South,188,3.0,11.0,61,0.00,,SKC,0.00,VWS V14.01,2013-02-10 08:40:00,
2013-02-10 03:45:00,35.1,23.0,24.27,SSE,163,7.0,11.0,61,0.00,,SKC,0.00,VWS V14.01,2013-02-10 08:45:00,
2013-02-10 03:50:00,35.1,23.0,24.20,South,177,4.0,9.0,61,0.00,,SKC,0.00,VWS V14.01,2013-02-10 08:50:00,
2013-02-10 03:55:00,35.1,23.0,24.27,SSW,213,6.0,7.0,61,0.00,,SKC,0.00,VWS V14.01,2013-02-10 08:55:00,
2013-02-10 04:00:00,35.1,23.0,24.27,South,170,3.0,9.0,61,0.00,,SKC,0.00,VWS V14.01,2013-02-10 09:00:00,
2013-02-10 04:05:00,35.1,23.0,24.27,South,169,4.0,6.0,61,0.00,,SKC,0.00,VWS V14.01,2013-02-10 09:05:00,
2013-02-10 04:10:00,35.0,23.3,24.17,South,188,4.0,6.0,62,0.00,,SKC,0.00,VWS V14.01,2013-02-10 09:10:00,
2013-02-10 04:15:00,35.0,23.3,24.28,SSE,167,3.0,6.0,62,0.00,,SKC,0.00,VWS V14.01,2013-02-10 09:15:00,
2013-02-10 04:20:00,35.1,23.4,24.27,South,186,3.0,7.0,62,0.00,,SKC,0.00,VWS V14.01,2013-02-10 09:20:00,
2013-02-10 04:25:00,35.1,23.4,24.28,SSE,165,3.0,9.0,62,0.00,,SKC,0.00,VWS V14.01,2013-02-10 09:25:00,
2013-02-10 04:30:00,35.1,23.4,24.28,SSE,163,3.0,11.0,62,0.00,,SKC,0.00,VWS V14.01,2013-02-10 09:30:00,
2013-02-10 04:35:00,35.2,23.5,24.26,SSE,168,2.0,10.0,62,0.00,,SKC,0.00,VWS V14.01,2013-02-10 09:35:00,
2013-02-10 04:40:00,35.3,23.2,24.25,South,188,1.0,11.0,61,0.00,,SKC,0.00,VWS V14.01,2013-02-10 09:40:00,
2013-02-10 04:45:00,35.2,23.5,24.29,SSW,201,4.0,8.0,62,0.00,,SKC,0.00,VWS V14.01,2013-02-10 09:45:00,
2013-02-10 04:50:00,35.2,23.5,24.29,South,171,2.0,6.0,62,0.00,,SKC,0.00,VWS V14.01,2013-02-10 09:50:00,
2013-02-10 04:55:00,35.3,23.6,24.30,ESE,122,4.0,9.0,62,0.00,,SKC,0.00,VWS V14.01,2013-02-10 09:55:00,
2013-02-10 05:00:00,35.3,23.6,24.30,South,173,4.0,7.0,62,0.00,,SKC,0.00,VWS V14.01,2013-02-10 10:00:00,
2013-02-10 05:05:00,35.3,23.6,24.29,South,183,3.0,7.0,62,0.00,,SKC,0.00,VWS V14.01,2013-02-10 10:05:00,
2013-02-10 05:10:00,35.3,23.6,24.30,ESE,117,4.0,7.0,62,0.00,,SKC,0.00,VWS V14.01,2013-02-10 10:10:00,
2013-02-10 05:14:00,35.4,23.7,24.25,SE,138,4.0,11.0,62,0.00,,SKC,0.00,VWS V14.01,2013-02-10 10:14:00,
2013-02-10 05:19:00,35.4,23.7,24.25,ESE,119,4.0,5.0,62,0.00,,SKC,0.00,VWS V14.01,2013-02-10 10:19:00,
2013-02-10 05:24:00,35.5,23.8,24.28,ESE,118,3.0,6.0,62,0.00,,SKC,0.00,VWS V14.01,2013-02-10 10:24:00,
2013-02-10 05:29:00,35.5,23.8,24.29,SSW,192,3.0,6.0,62,0.00,,SKC,0.00,VWS V14.01,2013-02-10 10:29:00,
2013-02-10 05:34:00,35.6,24.3,24.27,SSE,158,5.0,6.0,63,0.00,,SKC,0.00,VWS V14.01,2013-02-10 10:34:00,
2013-02-10 05:39:00,35.5,24.2,24.36,SSE,149,1.0,5.0,63,0.00,,SKC,0.00,VWS V14.01,2013-02-10 10:39:00,
2013-02-10 05:44:00,35.6,24.3,24.29,SW,225,3.0,5.0,63,0.00,,SKC,0.00,VWS V14.01,2013-02-10 10:44:00,
2013-02-10 05:49:00,35.6,24.3,24.34,SSE,151,2.0,4.0,63,0.00,,SKC,0.00,VWS V14.01,2013-02-10 10:49:00,
2013-02-10 05:54:00,35.7,24.0,24.26,South,171,2.0,5.0,62,0.00,,SKC,0.00,VWS V14.01,2013-02-10 10:54:00,
2013-02-10 05:59:00,35.7,24.4,24.27,SSE,157,3.0,4.0,63,0.00,,SKC,0.00,VWS V14.01,2013-02-10 10:59:00,
2013-02-10 06:04:00,35.7,24.0,24.28,South,182,5.0,5.0,62,0.00,,SKC,0.00,VWS V14.01,2013-02-10 11:04:00,
2013-02-10 06:09:00,35.7,24.0,24.29,SSE,155,1.0,5.0,62,0.00,,SKC,0.00,VWS V14.01,2013-02-10 11:09:00,
2013-02-10 06:14:00,35.8,24.1,24.26,SSE,164,5.0,7.0,62,0.00,,SKC,0.00,VWS V14.01,2013-02-10 11:14:00,
2013-02-10 06:19:00,35.8,24.1,24.24,South,184,3.0,6.0,62,0.00,,SKC,0.00,VWS V14.01,2013-02-10 11:19:00,
2013-02-10 06:24:00,35.9,24.2,24.25,SE,135,3.0,6.0,62,0.00,,SKC,0.00,VWS V14.01,2013-02-10 11:24:00,
2013-02-10 06:29:00,35.9,23.8,24.25,South,179,4.0,7.0,61,0.00,,SKC,0.00,VWS V14.01,2013-02-10 11:29:00,
2013-02-10 06:34:00,35.9,23.8,24.27,SSE,162,6.0,9.0,61,0.00,,SKC,0.00,VWS V14.01,2013-02-10 11:34:00,
2013-02-10 06:39:00,36.0,23.9,24.25,SSE,156,3.0,6.0,61,0.00,,SKC,0.00,VWS V14.01,2013-02-10 11:39:00,
2013-02-10 06:44:00,36.0,23.9,24.26,SSE,153,3.0,10.0,61,0.00,,SKC,0.00,VWS V14.01,2013-02-10 11:44:00,
2013-02-10 06:49:00,36.1,24.0,24.23,South,179,2.0,9.0,61,0.00,,SKC,0.00,VWS V14.01,2013-02-10 11:49:00,
2013-02-10 06:54:00,36.1,24.0,24.23,SSE,167,4.0,6.0,61,0.00,,SKC,0.00,VWS V14.01,2013-02-10 11:54:00,
2013-02-10 06:59:00,36.1,24.0,24.23,SE,144,7.0,13.0,61,0.00,,SKC,0.00,VWS V14.01,2013-02-10 11:59:00,
2013-02-10 07:04:00,36.1,24.0,24.24,South,173,9.0,15.0,61,0.00,,SKC,0.00,VWS V14.01,2013-02-10 12:04:00,
2013-02-10 07:09:00,36.1,24.0,24.24,SSE,155,3.0,6.0,61,0.00,,SKC,0.00,VWS V14.01,2013-02-10 12:09:00,
2013-02-10 07:14:00,36.0,23.9,24.23,SSE,161,4.0,11.0,61,0.00,,SKC,0.00,VWS V14.01,2013-02-10 12:14:00,
2013-02-10 07:19:00,36.0,23.9,24.23,South,177,4.0,6.0,61,0.00,,SKC,0.00,VWS V14.01,2013-02-10 12:19:00,
2013-02-10 07:24:00,36.1,24.0,24.20,SSW,200,8.0,8.0,61,0.00,,SKC,0.00,VWS V14.01,2013-02-10 12:24:00,
2013-02-10 07:29:00,36.0,23.9,24.24,South,183,2.0,8.0,61,0.00,,SKC,0.00,VWS V14.01,2013-02-10 12:29:00,
2013-02-10 07:34:00,36.1,24.4,24.24,SSE,157,4.0,7.0,62,0.00,,SKC,0.00,VWS V14.01,2013-02-10 12:34:00,
2013-02-10 07:39:00,36.0,24.3,24.28,SSE,163,4.0,11.0,62,0.00,,SKC,0.00,VWS V14.01,2013-02-10 12:39:00,
2013-02-10 07:44:00,36.0,24.3,24.28,SSE,163,6.0,7.0,62,0.00,,SKC,0.00,VWS V14.01,2013-02-10 12:44:00,
2013-02-10 07:49:00,36.0,24.3,24.27,SSE,163,4.0,7.0,62,0.00,,SKC,0.00,VWS V14.01,2013-02-10 12:49:00,
2013-02-10 07:54:00,36.0,24.6,24.35,SSE,161,4.0,6.0,63,0.00,,SKC,0.00,VWS V14.01,2013-02-10 12:54:00,
2013-02-10 07:59:00,36.1,24.4,24.28,SSE,162,2.0,9.0,62,0.00,,SKC,0.00,VWS V14.01,2013-02-10 12:59:00,
2013-02-10 08:04:00,36.1,24.7,24.29,South,173,4.0,5.0,63,0.00,,SKC,0.00,VWS V14.01,2013-02-10 13:04:00,
2013-02-10 08:09:00,36.2,24.8,24.27,SSE,167,4.0,6.0,63,0.00,,SKC,0.00,VWS V14.01,2013-02-10 13:09:00,
2013-02-10 08:14:00,36.2,24.8,24.28,South,175,3.0,6.0,63,0.00,,SKC,0.00,VWS V14.01,2013-02-10 13:14:00,
2013-02-10 08:19:00,36.4,24.6,24.28,South,175,6.0,9.0,62,0.00,,SKC,0.00,VWS V14.01,2013-02-10 13:19:00,
2013-02-10 08:24:00,36.6,24.4,24.28,SSE,167,5.0,13.0,61,0.00,,SKC,0.00,VWS V14.01,2013-02-10 13:24:00,
2013-02-10 08:29:00,36.8,24.6,24.37,SE,146,4.0,9.0,61,0.00,,SKC,0.00,VWS V14.01,2013-02-10 13:29:00,
2013-02-10 08:34:00,37.0,24.8,24.30,SSE,165,4.0,6.0,61,0.00,,SKC,0.00,VWS V14.01,2013-02-10 13:34:00,
2013-02-10 08:39:00,37.1,24.9,24.30,SSE,157,8.0,12.0,61,0.00,,SKC,0.00,VWS V14.01,2013-02-10 13:39:00,
2013-02-10 08:44:00,37.2,25.4,24.27,SSE,159,5.0,12.0,62,0.00,,SKC,0.00,VWS V14.01,2013-02-10 13:44:00,
2013-02-10 08:49:00,37.3,25.5,24.27,SSE,156,5.0,10.0,62,0.00,,SKC,0.00,VWS V14.01,2013-02-10 13:49:00,
2013-02-10 08:54:00,37.5,25.3,24.27,South,191,6.0,9.0,61,0.00,,SKC,0.00,VWS V14.01,2013-02-10 13:54:00,
2013-02-10 08:59:00,37.8,25.6,24.26,SSE,168,4.0,7.0,61,0.00,,SKC,0.00,VWS V14.01,2013-02-10 13:59:00,
2013-02-10 09:04:00,38.2,26.0,24.28,South,185,10.0,12.0,61,0.00,,SKC,0.00,VWS V14.01,2013-02-10 14:04:00,
2013-02-10 09:09:00,38.5,26.2,24.29,SSW,210,7.0,15.0,61,0.00,,SKC,0.00,VWS V14.01,2013-02-10 14:09:00,
2013-02-10 09:14:00,38.6,26.3,24.29,SSE,160,5.0,13.0,61,0.00,,SKC,0.00,VWS V14.01,2013-02-10 14:14:00,
2013-02-10 09:19:00,38.5,26.2,24.29,South,179,4.0,12.0,61,0.00,,SKC,0.00,VWS V14.01,2013-02-10 14:19:00,
2013-02-10 09:24:00,38.4,26.5,24.26,South,179,4.0,5.0,62,0.00,,SKC,0.00,VWS V14.01,2013-02-10 14:24:00,
2013-02-10 09:29:00,38.4,26.5,24.28,South,187,11.0,11.0,62,0.00,,SKC,0.00,VWS V14.01,2013-02-10 14:29:00,
2013-02-10 09:34:00,38.6,27.1,24.29,SSW,192,7.0,10.0,63,0.00,,SKC,0.00,VWS V14.01,2013-02-10 14:34:00,
2013-02-10 09:39:00,38.8,27.7,24.28,South,170,4.0,10.0,64,0.00,,SKC,0.00,VWS V14.01,2013-02-10 14:39:00,
2013-02-10 09:44:00,39.1,27.6,24.31,South,169,3.0,13.0,63,0.00,,SKC,0.00,VWS V14.01,2013-02-10 14:44:00,
2013-02-10 09:49:00,39.4,27.9,24.30,South,181,9.0,12.0,63,0.00,,SKC,0.00,VWS V14.01,2013-02-10 14:49:00,
2013-02-10 09:54:00,39.7,28.9,24.29,South,180,6.0,13.0,65,0.00,,SKC,0.00,VWS V14.01,2013-02-10 14:54:00,
2013-02-10 09:59:00,39.9,29.5,24.37,South,188,4.0,13.0,66,0.00,,SKC,0.00,VWS V14.01,2013-02-10 14:59:00,
2013-02-10 10:04:00,40.0,30.3,24.28,SW,217,3.0,15.0,68,0.00,,SKC,0.00,VWS V14.01,2013-02-10 15:04:00,
2013-02-10 10:09:00,39.8,30.8,24.37,South,186,4.0,11.0,70,0.00,,SKC,0.00,VWS V14.01,2013-02-10 15:09:00,
2013-02-10 10:14:00,39.4,31.5,24.25,SSW,199,6.0,8.0,73,0.00,,SKC,0.00,VWS V14.01,2013-02-10 15:14:00,
2013-02-10 10:19:00,39.3,31.7,24.26,South,173,4.0,10.0,74,0.00,,SKC,0.00,VWS V14.01,2013-02-10 15:19:00,
2013-02-10 10:24:00,39.3,32.0,24.20,South,175,3.0,7.0,75,0.00,,SKC,0.00,VWS V14.01,2013-02-10 15:24:00,
2013-02-10 10:29:00,39.5,32.2,24.28,SSW,202,10.0,13.0,75,0.00,,SKC,0.00,VWS V14.01,2013-02-10 15:29:00,
2013-02-10 10:34:00,39.7,32.1,24.28,SSW,199,7.0,12.0,74,0.00,,SKC,0.00,VWS V14.01,2013-02-10 15:34:00,
2013-02-10 10:39:00,39.9,32.6,24.26,South,184,1.0,9.0,75,0.00,,SKC,0.00,VWS V14.01,2013-02-10 15:39:00,
2013-02-10 10:44:00,40.1,32.8,24.28,South,176,5.0,10.0,75,0.00,,SKC,0.00,VWS V14.01,2013-02-10 15:44:00,
2013-02-10 10:49:00,40.3,33.0,24.28,South,180,2.0,9.0,75,0.00,,SKC,0.00,VWS V14.01,2013-02-10 15:49:00,
2013-02-10 10:54:00,40.4,32.8,24.29,South,184,9.0,10.0,74,0.00,,SKC,0.00,VWS V14.01,2013-02-10 15:54:00,
2013-02-10 10:59:00,40.3,32.7,24.27,SSE,150,5.0,12.0,74,0.00,,SKC,0.00,VWS V14.01,2013-02-10 15:59:00,
2013-02-10 11:04:00,40.5,32.9,24.29,South,186,1.0,12.0,74,0.00,,SKC,0.00,VWS V14.01,2013-02-10 16:04:00,
2013-02-10 11:09:00,40.7,33.1,24.28,South,173,4.0,12.0,74,0.00,,SKC,0.00,VWS V14.01,2013-02-10 16:09:00,
2013-02-10 11:14:00,41.1,33.5,24.26,South,184,7.0,7.0,74,0.00,,SKC,0.00,VWS V14.01,2013-02-10 16:14:00,
2013-02-10 11:19:00,41.5,33.8,24.25,SW,223,10.0,10.0,74,0.00,,SKC,0.00,VWS V14.01,2013-02-10 16:19:00,
2013-02-10 11:24:00,41.8,33.8,24.25,South,186,4.0,10.0,73,0.00,,SKC,0.00,VWS V14.01,2013-02-10 16:24:00,
2013-02-10 11:29:00,42.3,34.3,24.27,South,190,4.0,7.0,73,0.00,,SKC,0.00,VWS V14.01,2013-02-10 16:29:00,
2013-02-10 11:34:00,42.9,34.5,24.26,SSW,210,7.0,10.0,72,0.00,,SKC,0.00,VWS V14.01,2013-02-10 16:34:00,
2013-02-10 11:39:00,43.5,34.7,24.26,South,183,8.0,11.0,71,0.00,,SKC,0.00,VWS V14.01,2013-02-10 16:39:00,
2013-02-10 11:44:00,44.1,35.0,24.26,South,188,14.0,14.0,70,0.00,,SKC,0.00,VWS V14.01,2013-02-10 16:44:00,
2013-02-10 11:49:00,44.6,35.1,24.26,SSE,163,5.0,13.0,69,0.00,,SKC,0.00,VWS V14.01,2013-02-10 16:49:00,
2013-02-10 11:54:00,45.1,34.8,24.27,South,189,2.0,11.0,67,0.00,,SKC,0.00,VWS V14.01,2013-02-10 16:54:00,
2013-02-10 11:59:00,45.6,34.9,24.26,SSE,168,5.0,10.0,66,0.00,,SKC,0.00,VWS V14.01,2013-02-10 16:59:00,
2013-02-10 12:04:00,46.3,35.2,24.26,SSE,154,4.0,9.0,65,0.00,,SKC,0.00,VWS V14.01,2013-02-10 17:04:00,
2013-02-10 12:09:00,46.9,34.6,24.26,SSW,198,14.0,17.0,62,0.00,,SKC,0.00,VWS V14.01,2013-02-10 17:09:00,
2013-02-10 12:14:00,47.4,34.2,24.29,SSE,153,11.0,20.0,60,0.00,,SKC,0.00,VWS V14.01,2013-02-10 17:14:00,
2013-02-10 12:19:00,47.6,34.4,24.27,SW,217,7.0,16.0,60,0.00,,SKC,0.00,VWS V14.01,2013-02-10 17:19:00,
2013-02-10 12:24:00,47.9,34.3,24.25,South,184,5.0,16.0,59,0.00,,SKC,0.00,VWS V14.01,2013-02-10 17:24:00,
2013-02-10 12:29:00,48.1,34.9,24.23,South,178,13.0,16.0,60,0.00,,SKC,0.00,VWS V14.01,2013-02-10 17:29:00,
2013-02-10 12:34:00,48.2,34.6,24.25,South,182,4.0,16.0,59,0.00,,SKC,0.00,VWS V14.01,2013-02-10 17:34:00,
2013-02-10 12:39:00,48.4,34.8,24.21,SW,218,6.0,11.0,59,0.00,,SKC,0.00,VWS V14.01,2013-02-10 17:39:00,
2013-02-10 12:44:00,48.5,34.8,24.21,South,178,6.0,11.0,59,0.00,,SKC,0.00,VWS V14.01,2013-02-10 17:44:00,
2013-02-10 12:49:00,48.5,34.8,24.17,SSW,210,9.0,15.0,59,0.00,,SKC,0.00,VWS V14.01,2013-02-10 17:49:00,
2013-02-10 12:54:00,48.4,34.8,24.18,SE,137,9.0,16.0,59,0.00,,SKC,0.00,VWS V14.01,2013-02-10 17:54:00,
2013-02-10 12:59:00,48.3,34.7,24.21,South,173,5.0,13.0,59,0.00,,SKC,0.00,VWS V14.01,2013-02-10 17:59:00,
2013-02-10 13:04:00,48.5,34.8,24.26,SSW,205,11.0,15.0,59,0.00,,SKC,0.00,VWS V14.01,2013-02-10 18:04:00,
2013-02-10 13:09:00,48.3,34.7,24.26,SSW,202,6.0,16.0,59,0.00,,SKC,0.00,VWS V14.01,2013-02-10 18:09:00,
2013-02-10 13:14:00,48.2,35.0,24.25,SSE,150,13.0,13.0,60,0.00,,SKC,0.00,VWS V14.01,2013-02-10 18:14:00,
2013-02-10 13:19:00,48.2,34.6,24.28,South,189,6.0,14.0,59,0.00,,SKC,0.00,VWS V14.01,2013-02-10 18:19:00,
2013-02-10 13:24:00,48.2,35.0,24.29,South,190,7.0,9.0,60,0.00,,SKC,0.00,VWS V14.01,2013-02-10 18:24:00,
2013-02-10 13:29:00,48.3,35.1,24.24,SSE,162,5.0,9.0,60,0.00,,SKC,0.00,VWS V14.01,2013-02-10 18:29:00,
2013-02-10 13:34:00,48.3,35.1,24.29,SSW,198,3.0,12.0,60,0.00,,SKC,0.00,VWS V14.01,2013-02-10 18:34:00,
2013-02-10 13:39:00,48.3,35.1,24.30,SSE,148,12.0,14.0,60,0.00,,SKC,0.00,VWS V14.01,2013-02-10 18:39:00,
2013-02-10 13:44:00,48.3,35.5,24.29,South,184,5.0,8.0,61,0.00,,SKC,0.00,VWS V14.01,2013-02-10 18:44:00,
2013-02-10 13:49:00,48.2,35.4,24.29,South,186,7.0,10.0,61,0.00,,SKC,0.00,VWS V14.01,2013-02-10 18:49:00,
2013-02-10 13:54:00,48.0,35.2,24.19,SSW,199,14.0,18.0,61,0.00,,SKC,0.00,VWS V14.01,2013-02-10 18:54:00,
2013-02-10 13:59:00,47.8,35.4,24.19,SSW,195,10.0,10.0,62,0.00,,SKC,0.00,VWS V14.01,2013-02-10 18:59:00,
2013-02-10 14:04:00,47.8,35.4,24.22,SSE,165,3.0,8.0,62,0.00,,SKC,0.00,VWS V14.01,2013-02-10 19:04:00,
2013-02-10 14:09:00,47.8,35.4,24.17,SSW,194,3.0,5.0,62,0.00,,SKC,0.00,VWS V14.01,2013-02-10 19:09:00,
2013-02-10 14:14:00,47.9,35.5,24.17,SSE,168,6.0,13.0,62,0.00,,SKC,0.00,VWS V14.01,2013-02-10 19:14:00,
2013-02-10 14:19:00,48.1,35.7,24.24,SSE,150,5.0,9.0,62,0.00,,SKC,0.00,VWS V14.01,2013-02-10 19:19:00,
2013-02-10 14:24:00,48.2,35.8,24.28,SE,146,5.0,11.0,62,0.00,,SKC,0.00,VWS V14.01,2013-02-10 19:24:00,
2013-02-10 14:29:00,48.4,36.0,24.28,SSE,153,11.0,11.0,62,0.00,,SKC,0.00,VWS V14.01,2013-02-10 19:29:00,
2013-02-10 14:34:00,48.7,35.9,24.28,South,182,3.0,12.0,61,0.00,,SKC,0.00,VWS V14.01,2013-02-10 19:34:00,
2013-02-10 14:39:00,49.0,36.2,24.14,South,169,2.0,14.0,61,0.00,,SKC,0.00,VWS V14.01,2013-02-10 19:39:00,
2013-02-10 14:44:00,49.1,35.8,24.14,South,190,5.0,13.0,60,0.00,,SKC,0.00,VWS V14.01,2013-02-10 19:44:00,
2013-02-10 14:49:00,49.3,36.4,24.14,South,189,10.0,10.0,61,0.00,,SKC,0.00,VWS V14.01,2013-02-10 19:49:00,
2013-02-10 14:54:00,49.2,35.9,24.14,SSE,162,11.0,15.0,60,0.00,,SKC,0.00,VWS V14.01,2013-02-10 19:54:00,
2013-02-10 14:59:00,49.3,36.0,24.28,SSW,200,6.0,8.0,60,0.00,,SKC,0.00,VWS V14.01,2013-02-10 19:59:00,
2013-02-10 15:04:00,49.2,35.9,24.29,South,179,6.0,7.0,60,0.00,,SKC,0.00,VWS V14.01,2013-02-10 20:04:00,
2013-02-10 15:09:00,49.2,35.9,24.28,South,171,8.0,8.0,60,0.00,,SKC,0.00,VWS V14.01,2013-02-10 20:09:00,
2013-02-10 15:14:00,49.1,35.8,24.20,South,172,2.0,5.0,60,0.00,,SKC,0.00,VWS V14.01,2013-02-10 20:14:00,
2013-02-10 15:19:00,49.1,35.8,24.25,South,190,4.0,12.0,60,0.00,,SKC,0.00,VWS V14.01,2013-02-10 20:19:00,
2013-02-10 15:24:00,49.1,35.8,24.25,South,176,4.0,10.0,60,0.00,,SKC,0.00,VWS V14.01,2013-02-10 20:24:00,
2013-02-10 15:29:00,49.1,36.2,24.26,SSE,165,2.0,7.0,61,0.00,,SKC,0.00,VWS V14.01,2013-02-10 20:29:00,
2013-02-10 15:34:00,49.3,36.0,24.23,South,191,2.0,11.0,60,0.00,,SKC,0.00,VWS V14.01,2013-02-10 20:34:00,
2013-02-10 15:39:00,49.4,36.1,24.23,SSW,200,4.0,11.0,60,0.00,,SKC,0.00,VWS V14.01,2013-02-10 20:39:00,
2013-02-10 15:44:00,49.5,36.6,24.23,South,171,6.0,9.0,61,0.00,,SKC,0.00,VWS V14.01,2013-02-10 20:44:00,
2013-02-10 15:49:00,49.2,36.8,24.22,SSE,163,6.0,13.0,62,0.00,,SKC,0.00,VWS V14.01,2013-02-10 20:49:00,
2013-02-10 15:54:00,49.0,37.4,24.23,SSE,156,4.0,6.0,64,0.00,,SKC,0.00,VWS V14.01,2013-02-10 20:54:00,
2013-02-10 15:59:00,48.7,37.1,24.25,SSW,199,9.0,9.0,64,0.00,,SKC,0.00,VWS V14.01,2013-02-10 20:59:00,
2013-02-10 16:04:00,48.8,37.2,24.26,SSE,152,10.0,10.0,64,0.00,,SKC,0.00,VWS V14.01,2013-02-10 21:04:00,
2013-02-10 16:09:00,48.7,37.5,24.23,SSE,151,8.0,14.0,65,0.00,,SKC,0.00,VWS V14.01,2013-02-10 21:09:00,
2013-02-10 16:14:00,48.4,38.0,24.26,SSE,160,14.0,15.0,67,0.00,,SKC,0.00,VWS V14.01,2013-02-10 21:14:00,
2013-02-10 16:19:00,47.9,38.6,24.24,SSE,155,6.0,13.0,70,0.00,,SKC,0.00,VWS V14.01,2013-02-10 21:19:00,
2013-02-10 16:24:00,47.8,38.5,24.26,SSE,157,12.0,19.0,70,0.00,,SKC,0.00,VWS V14.01,2013-02-10 21:24:00,
2013-02-10 16:29:00,47.8,38.5,24.25,South,188,10.0,16.0,70,0.01,,SKC,0.01,VWS V14.01,2013-02-10 21:29:00,
2013-02-10 16:34:00,47.8,38.9,24.18,SSE,167,6.0,18.0,71,0.01,,SKC,0.01,VWS V14.01,2013-02-10 21:34:00,
2013-02-10 16:39:00,47.8,38.9,24.24,South,171,12.0,14.0,71,0.01,,SKC,0.01,VWS V14.01,2013-02-10 21:39:00,
2013-02-10 16:44:00,47.9,39.0,24.22,SSW,192,18.0,18.0,71,0.01,,SKC,0.01,VWS V14.01,2013-02-10 21:44:00,
2013-02-10 16:49:00,48.0,39.1,24.22,South,190,10.0,13.0,71,0.01,,SKC,0.01,VWS V14.01,2013-02-10 21:49:00,
2013-02-10 16:54:00,48.1,39.2,24.22,South,175,12.0,15.0,71,0.01,,SKC,0.01,VWS V14.01,2013-02-10 21:54:00,
2013-02-10 16:59:00,48.2,38.9,24.23,SSW,195,8.0,15.0,70,0.01,,SKC,0.01,VWS V14.01,2013-02-10 21:59:00,
2013-02-10 17:04:00,48.3,39.0,24.24,South,184,5.0,15.0,70,0.01,,SKC,0.01,VWS V14.01,2013-02-10 22:04:00,
2013-02-10 17:09:00,48.4,39.1,24.24,SSE,168,9.0,11.0,70,0.01,,SKC,0.01,VWS V14.01,2013-02-10 22:09:00,
2013-02-10 17:14:00,48.6,38.9,24.22,SSE,153,8.0,8.0,69,0.01,,SKC,0.01,VWS V14.01,2013-02-10 22:14:00,
2013-02-10 17:19:00,48.8,39.1,24.22,South,171,6.0,21.0,69,0.01,,SKC,0.01,VWS V14.01,2013-02-10 22:19:00,
2013-02-10 17:24:00,49.0,39.3,24.22,SSW,195,6.0,8.0,69,0.01,,SKC,0.01,VWS V14.01,2013-02-10 22:24:00,
2013-02-10 17:29:00,49.1,39.4,24.19,SSW,210,7.0,15.0,69,0.00,,SKC,0.01,VWS V14.01,2013-02-10 22:29:00,
2013-02-10 17:34:00,49.1,39.4,24.21,SSW,200,4.0,11.0,69,0.00,,SKC,0.01,VWS V14.01,2013-02-10 22:34:00,
2013-02-10 17:39:00,49.2,39.5,24.24,South,191,11.0,16.0,69,0.00,,SKC,0.01,VWS V14.01,2013-02-10 22:39:00,
2013-02-10 17:44:00,49.2,39.8,24.22,SSE,165,9.0,17.0,70,0.00,,SKC,0.01,VWS V14.01,2013-02-10 22:44:00,
2013-02-10 17:49:00,49.1,39.8,24.25,SSE,151,8.0,19.0,70,0.00,,SKC,0.01,VWS V14.01,2013-02-10 22:49:00,
2013-02-10 17:54:00,49.0,40.0,24.23,South,180,8.0,18.0,71,0.00,,SKC,0.01,VWS V14.01,2013-02-10 22:54:00,
2013-02-10 17:59:00,49.0,40.0,24.24,South,190,18.0,19.0,71,0.00,,SKC,0.01,VWS V14.01,2013-02-10 22:59:00,
2013-02-10 18:04:00,49.0,40.4,24.22,SSE,157,11.0,18.0,72,0.00,,SKC,0.01,VWS V14.01,2013-02-10 23:04:00,
2013-02-10 18:09:00,48.8,40.2,24.21,SSW,201,14.0,14.0,72,0.00,,SKC,0.01,VWS V14.01,2013-02-10 23:09:00,
2013-02-10 18:14:00,48.7,40.5,24.20,SSW,213,6.0,24.0,73,0.00,,SKC,0.01,VWS V14.01,2013-02-10 23:14:00,
2013-02-10 18:19:00,48.7,40.5,24.27,SSE,153,14.0,23.0,73,0.00,,SKC,0.01,VWS V14.01,2013-02-10 23:19:00,
2013-02-10 18:24:00,48.7,40.8,24.25,South,184,16.0,16.0,74,0.00,,SKC,0.01,VWS V14.01,2013-02-10 23:24:00,
2013-02-10 18:29:00,48.6,40.7,24.27,South,180,5.0,20.0,74,0.00,,SKC,0.01,VWS V14.01,2013-02-10 23:29:00,
2013-02-10 18:34:00,48.7,41.1,24.28,South,186,7.0,23.0,75,0.00,,SKC,0.01,VWS V14.01,2013-02-10 23:34:00,
2013-02-10 18:39:00,48.8,41.2,24.28,SSW,209,3.0,20.0,75,0.00,,SKC,0.01,VWS V14.01,2013-02-10 23:39:00,
2013-02-10 18:44:00,49.0,41.8,24.27,SSW,207,8.0,22.0,76,0.00,,SKC,0.01,VWS V14.01,2013-02-10 23:44:00,
2013-02-10 18:49:00,49.0,41.8,24.24,SSE,161,8.0,12.0,76,0.00,,SKC,0.01,VWS V14.01,2013-02-10 23:49:00,
2013-02-10 18:54:00,49.1,42.2,24.28,South,173,11.0,23.0,77,0.00,,SKC,0.01,VWS V14.01,2013-02-10 23:54:00,
2013-02-10 18:59:00,49.2,42.3,24.27,South,182,16.0,23.0,77,0.00,,SKC,0.01,VWS V14.01,2013-02-10 23:59:00,
2013-02-10 19:04:00,49.4,42.8,24.25,South,187,10.0,25.0,78,0.00,,SKC,0.01,VWS V14.01,2013-02-11 00:04:00,
2013-02-10 19:09:00,49.5,42.9,24.28,South,180,12.0,20.0,78,0.00,,SKC,0.01,VWS V14.01,2013-02-11 00:09:00,
2013-02-10 19:14:00,49.6,43.4,24.27,South,187,36.0,36.0,79,0.00,,SKC,0.01,VWS V14.01,2013-02-11 00:14:00,
2013-02-10 19:19:00,49.8,43.6,24.26,South,188,18.0,21.0,79,0.00,,SKC,0.01,VWS V14.01,2013-02-11 00:19:00,
2013-02-10 19:24:00,49.8,43.6,24.27,SSW,213,11.0,23.0,79,0.00,,SKC,0.01,VWS V14.01,2013-02-11 00:24:00,
2013-02-10 19:29:00,49.7,43.8,24.27,South,186,12.0,17.0,80,0.00,,SKC,0.01,VWS V14.01,2013-02-11 00:29:00,
2013-02-10 19:34:00,49.6,43.7,24.28,SSE,157,19.0,25.0,80,0.00,,SKC,0.01,VWS V14.01,2013-02-11 00:34:00,
2013-02-10 19:39:00,49.6,44.0,24.28,SSW,199,4.0,18.0,81,0.00,,SKC,0.01,VWS V14.01,2013-02-11 00:39:00,
2013-02-10 19:44:00,49.7,44.1,24.27,South,187,22.0,22.0,81,0.00,,SKC,0.01,VWS V14.01,2013-02-11 00:44:00,
2013-02-10 19:49:00,49.8,44.5,24.27,SSE,165,17.0,23.0,82,0.00,,SKC,0.01,VWS V14.01,2013-02-11 00:49:00,
2013-02-10 19:54:00,49.9,44.6,24.26,SSE,160,16.0,21.0,82,0.00,,SKC,0.01,VWS V14.01,2013-02-11 00:54:00,
2013-02-10 19:59:00,50.0,45.0,24.25,South,188,16.0,24.0,83,0.00,,SKC,0.01,VWS V14.01,2013-02-11 00:59:00,
2013-02-10 20:04:00,50.0,45.0,24.27,SW,217,26.0,26.0,83,0.00,,SKC,0.01,VWS V14.01,2013-02-11 01:04:00,
2013-02-10 20:09:00,50.0,45.0,24.28,SSW,196,12.0,19.0,83,0.00,,SKC,0.01,VWS V14.01,2013-02-11 01:09:00,
2013-02-10 20:14:00,50.0,45.4,24.28,WSW,242,11.0,17.0,84,0.00,,SKC,0.01,VWS V14.01,2013-02-11 01:14:00,
2013-02-10 20:19:00,50.0,45.4,24.22,SSE,159,20.0,26.0,84,0.00,,SKC,0.01,VWS V14.01,2013-02-11 01:19:00,
2013-02-10 20:24:00,49.9,45.3,24.22,South,187,12.0,18.0,84,0.00,,SKC,0.01,VWS V14.01,2013-02-11 01:24:00,
2013-02-10 20:29:00,49.9,45.3,24.25,South,174,19.0,22.0,84,0.00,,SKC,0.01,VWS V14.01,2013-02-11 01:29:00,
2013-02-10 20:34:00,49.9,45.6,24.23,SSW,196,18.0,23.0,85,0.00,,SKC,0.01,VWS V14.01,2013-02-11 01:34:00,
2013-02-10 20:39:00,49.9,45.6,24.23,SSW,199,29.0,29.0,85,0.00,,SKC,0.01,VWS V14.01,2013-02-11 01:39:00,
2013-02-10 20:44:00,49.9,45.6,24.22,SSW,204,12.0,21.0,85,0.00,,SKC,0.01,VWS V14.01,2013-02-11 01:44:00,
2013-02-10 20:49:00,49.9,45.6,24.22,SSW,199,10.0,24.0,85,0.00,,SKC,0.01,VWS V14.01,2013-02-11 01:49:00,
2013-02-10 20:54:00,49.7,45.7,24.23,South,190,14.0,17.0,86,0.00,,SKC,0.01,VWS V14.01,2013-02-11 01:54:00,
2013-02-10 20:59:00,49.7,45.7,24.19,South,188,14.0,20.0,86,0.00,,SKC,0.01,VWS V14.01,2013-02-11 01:59:00,
2013-02-10 21:04:00,49.7,46.0,24.19,SW,215,3.0,19.0,87,0.00,,SKC,0.01,VWS V14.01,2013-02-11 02:04:00,
2013-02-10 21:09:00,49.6,45.9,24.22,South,180,3.0,11.0,87,0.00,,SKC,0.01,VWS V14.01,2013-02-11 02:09:00,
2013-02-10 21:14:00,49.4,45.7,24.27,South,178,12.0,13.0,87,0.00,,SKC,0.01,VWS V14.01,2013-02-11 02:14:00,
2013-02-10 21:19:00,49.4,46.0,24.24,South,188,10.0,24.0,88,0.00,,SKC,0.01,VWS V14.01,2013-02-11 02:19:00,
2013-02-10 21:24:00,49.4,46.0,24.21,South,180,7.0,16.0,88,0.00,,SKC,0.01,VWS V14.01,2013-02-11 02:24:00,
2013-02-10 21:29:00,49.2,46.1,24.23,SSE,161,5.0,17.0,89,0.00,,SKC,0.01,VWS V14.01,2013-02-11 02:29:00,
2013-02-10 21:34:00,49.1,46.0,24.22,SSW,192,5.0,14.0,89,0.00,,SKC,0.01,VWS V14.01,2013-02-11 02:34:00,
2013-02-10 21:39:00,48.9,46.1,24.22,SSE,156,9.0,13.0,90,0.00,,SKC,0.01,VWS V14.01,2013-02-11 02:39:00,
2013-02-10 21:44:00,48.8,46.0,24.22,SW,233,6.0,9.0,90,0.00,,SKC,0.01,VWS V14.01,2013-02-11 02:44:00,
2013-02-10 21:49:00,48.7,46.2,24.23,SSW,202,10.0,14.0,91,0.00,,SKC,0.01,VWS V14.01,2013-02-11 02:49:00,
2013-02-10 21:54:00,48.6,46.1,24.22,SSW,204,14.0,17.0,91,0.00,,SKC,0.01,VWS V14.01,2013-02-11 02:54:00,
2013-02-10 21:59:00,48.5,46.3,24.23,SSW,194,14.0,17.0,92,0.00,,SKC,0.01,VWS V14.01,2013-02-11 02:59:00,
2013-02-10 22:04:00,48.4,46.2,24.22,SSW,213,10.0,10.0,92,0.00,,SKC,0.01,VWS V14.01,2013-02-11 03:04:00,
2013-02-10 22:09:00,48.4,46.2,24.24,SSW,205,5.0,14.0,92,0.00,,SKC,0.01,VWS V14.01,2013-02-11 03:09:00,
2013-02-10 22:14:00,48.3,46.1,24.23,SSE,168,10.0,11.0,92,0.00,,SKC,0.01,VWS V14.01,2013-02-11 03:14:00,
2013-02-10 22:19:00,48.3,46.4,24.21,SSW,192,5.0,11.0,93,0.00,,SKC,0.01,VWS V14.01,2013-02-11 03:19:00,
2013-02-10 22:24:00,48.3,46.4,24.24,SSW,210,17.0,17.0,93,0.00,,SKC,0.01,VWS V14.01,2013-02-11 03:24:00,
2013-02-10 22:29:00,48.3,46.4,24.23,SSW,213,9.0,9.0,93,0.01,,SKC,0.02,VWS V14.01,2013-02-11 03:29:00,
2013-02-10 22:34:00,48.3,46.4,24.23,WSW,246,7.0,15.0,93,0.01,,SKC,0.02,VWS V14.01,2013-02-11 03:34:00,
2013-02-10 22:39:00,48.4,46.5,24.23,SSW,192,5.0,14.0,93,0.01,,SKC,0.02,VWS V14.01,2013-02-11 03:39:00,
2013-02-10 22:44:00,48.4,46.5,24.23,South,182,9.0,16.0,93,0.01,,SKC,0.02,VWS V14.01,2013-02-11 03:44:00,
2013-02-10 22:49:00,48.5,46.6,24.23,South,184,3.0,11.0,93,0.01,,SKC,0.02,VWS V14.01,2013-02-11 03:49:00,
2013-02-10 22:54:00,48.5,46.6,24.23,SSW,198,7.0,14.0,93,0.01,,SKC,0.02,VWS V14.01,2013-02-11 03:54:00,
2013-02-10 22:59:00,48.4,46.5,24.23,SSW,211,13.0,13.0,93,0.01,,SKC,0.02,VWS V14.01,2013-02-11 03:59:00,
2013-02-10 23:04:00,48.5,46.6,24.22,SSW,200,16.0,17.0,93,0.01,,SKC,0.02,VWS V14.01,2013-02-11 04:04:00,
2013-02-10 23:09:00,48.5,46.6,24.22,SSW,196,17.0,17.0,93,0.01,,SKC,0.02,VWS V14.01,2013-02-11 04:09:00,
2013-02-10 23:14:00,48.6,46.7,24.22,SSW,192,6.0,12.0,93,0.01,,SKC,0.02,VWS V14.01,2013-02-11 04:14:00,
2013-02-10 23:19:00,48.7,46.8,24.23,SSW,209,16.0,16.0,93,0.01,,SKC,0.02,VWS V14.01,2013-02-11 04:19:00,
2013-02-10 23:24:00,48.7,46.8,24.22,SSW,211,11.0,23.0,93,0.01,,SKC,0.02,VWS V14.01,2013-02-11 04:24:00,
2013-02-10 23:29:00,48.8,46.6,24.22,SSW,212,8.0,17.0,92,0.00,,SKC,0.02,VWS V14.01,2013-02-11 04:29:00,
2013-02-10 23:34:00,48.9,46.7,24.22,South,176,9.0,17.0,92,0.00,,SKC,0.02,VWS V14.01,2013-02-11 04:34:00,
2013-02-10 23:39:00,49.0,46.8,24.22,SSW,192,4.0,19.0,92,0.00,,SKC,0.02,VWS V14.01,2013-02-11 04:39:00,
2013-02-10 23:44:00,49.0,46.8,24.22,South,175,9.0,11.0,92,0.00,,SKC,0.02,VWS V14.01,2013-02-11 04:44:00,
2013-02-10 23:49:00,49.0,46.8,24.22,South,174,6.0,10.0,92,0.00,,SKC,0.02,VWS V14.01,2013-02-11 04:49:00,
2013-02-10 23:54:00,49.0,46.8,24.22,SSE,153,7.0,15.0,92,0.00,,SKC,0.02,VWS V14.01,2013-02-11 04:54:00,
2013-02-10 23:59:00,49.1,46.9,24.22,SSW,200,2.0,13.0,92,0.00,,SKC,0.02,VWS V14.01,2013-02-11 04:59:00,